Retour au catalogue

DELTA 1 DEB

ActifSSO
NORAD 8980·DEBRIS·🇺🇸 United States

Lancé Jan 22, 1975 depuis Vandenberg Space Force Base

Loading…

Prochains Passages (prochaines 24 heures)

TLE

FraisSource: Space-Track

Époque: Sep 14, 2026, 15:07 UTC

1 08980U 75004BN  26257.63047187  .00000673  00000-0  12339-3 0  9996
2 08980  97.8960 143.2906 0039907  86.9628 273.6143 14.68374360660334

Suivez DELTA 1 DEB en temps réel avec AllMySat

Download on the App Store